This is the latest recevied weather packets stored in our database for station/object WY7EM. If no packets are shown the sender has not sent any weather packets the latest 10 day(s).
| Time | Temp. | Humidity | Pressure | Rain* | Wind** | Luminosity | Snow |
|---|---|---|---|---|---|---|---|
| 1777523867 | 17.22° C | 27% | 1014.3 hPa | 0 mm | - | 0 W/m² | - |
| 1777523564 | 17.22° C | 27% | 1014.3 hPa | 0 mm | - | 0 W/m² | - |
| 1777523260 | 17.22° C | 27% | 1014.3 hPa | 0 mm | - | 0 W/m² | - |
| 1777522955 | 17.22° C | 27% | 1014 hPa | 0 mm | - | 0 W/m² | - |
| 1777522653 | 17.22° C | 27% | 1014 hPa | 0 mm | - | 0 W/m² | - |
| 1777522350 | 17.22° C | 27% | 1014.1 hPa | 0 mm | - | 0 W/m² | - |
| 1777522046 | 17.78° C | 27% | 1014.3 hPa | 0 mm | - | 0 W/m² | - |
| 1777521743 | 17.78° C | 27% | 1014 hPa | 0 mm | - | 0 W/m² | - |
| 1777521440 | 17.78° C | 26% | 1014.1 hPa | 0 mm | - | 0 W/m² | - |
| 1777521137 | 17.78° C | 25% | 1013.9 hPa | 0 mm | - | 0 W/m² | - |
| 1777520834 | 18.33° C | 24% | 1013.9 hPa | 0 mm | - | 0 W/m² | - |
| 1777520531 | 18.33° C | 23% | 1013.8 hPa | 0 mm | - | 0 W/m² | - |
| 1777520228 | 18.89° C | 22% | 1013.8 hPa | 0 mm | - | 0 W/m² | - |
| 1777519926 | 18.89° C | 21% | 1013.9 hPa | 0 mm | - | 0 W/m² | - |
| 1777519623 | 18.89° C | 20% | 1013.7 hPa | 0 mm | - | 0 W/m² | - |
| 1777519319 | 18.89° C | 20% | 1013.7 hPa | 0 mm | - | 0 W/m² | - |
| 1777519015 | 19.44° C | 19% | 1013.6 hPa | 0 mm | - | 0 W/m² | - |
| 1777518711 | 19.44° C | 19% | 1013.3 hPa | 0 mm | - | 0 W/m² | - |
| 1777518409 | 20° C | 18% | 1013.3 hPa | 0 mm | - | 0 W/m² | - |
| 1777518104 | 20° C | 18% | 1013.2 hPa | 0 mm | - | 0 W/m² | - |
| 1777517800 | 20° C | 18% | 1013.2 hPa | 0 mm | - | 0 W/m² | - |
| 1777517496 | 20° C | 19% | 1013.2 hPa | 0 mm | - | 0 W/m² | - |
| 1777517195 | 20° C | 18% | 1012.9 hPa | 0 mm | - | 0 W/m² | - |
| 1777516893 | 20.56° C | 18% | 1013 hPa | 0 mm | - | 0 W/m² | - |
| 1777516590 | 20° C | 18% | 1012.8 hPa | 0 mm | - | 0 W/m² | - |
* Rain latest hour (hover to see other rain measurements)
** Current wind speed in m/s (hover to see current wind gust speed)